Regional Weather Roundup
Issued by NWS

Home | Current Version | Previous Version | Graphics & Text | Print | Product List | Glossary Off
Versions: 1 2 3 4 5 6 7 8 9 10 11 12 13 14 15 16 17 18 19 20 21 22 23 24 25 26 27 28 29 30 31 32 33 34 35 36 37 38 39 40 41 42 43 44 45 46 47 48 49 50

000
ASUS43 KDTX 302110
RWRMI
MICHIGAN HOURLY REGIONAL WEATHER ROUNDUP
NATIONAL WEATHER SERVICE DETROIT/PONTIAC MI
500 PM EDT SAT APR 30 2016

NOTE: "FAIR" INDICATES FEW OR NO CLOUDS BELOW 12,000 FEET WITH NO
SIGNIFICANT WEATHER AND/OR OBSTRUCTION TO VISIBILITY.

MIZ047>049-052>055-059>063-066>070-074>076-081>083-302200-
SOUTHEAST LOWER MICHIGAN

CITY           SKY/WX    TMP DP  RH WIND       PRES   REMARKS
ADRIAN         LGT RAIN  48  45  89 E14       30.04F FOG
ALMA           CLOUDY    55  37  50 NE10      30.06F
ANN ARBOR      LGT RAIN  50  46  86 E12       30.04F
BAD AXE        CLOUDY    54  36  49 E8        30.11S
CARO           CLOUDY    57  37  46 E9G16     30.08S
DETROIT CITY   LGT RAIN  49  44  83 E9        30.08F
DETROIT        LGT RAIN  50  45  83 E9        30.06F
FLINT          CLOUDY    59  37  44 SE10      30.06S
GROSSE ILE     LGT RAIN  48  45  87 E8        30.05F
HILLSDALE      LGT RAIN  47  46  95 E9        30.01F
HOWELL         LGT RAIN  51  43  76 E7        30.04F

CITY           SKY/WX    TMP DP  RH WIND       PRES   REMARKS
JACKSON        LGT RAIN  49  45  86 E10       30.02F
LAMBERTVILLE   LGT RAIN  47  45  91 E5        30.05F
LANSING        LGT RAIN  51  41  68 E7        30.05F
LAPEER         CLOUDY    56  38  49 E7        30.06F
MASON          LGT RAIN  49  44  80 E5        30.04F
MONROE         LGT RAIN  46  45  95 E8        30.06S
MT. CLEMENS    CLOUDY    52  46  79 SE9       30.07F
PONTIAC        DRIZZLE   53  41  63 E9        30.05F
PORT HOPE        N/A     44  36  73 NE3       30.11F
PORT HURON     CLOUDY    52  39  62 NE8       30.09S
TRI CITIES     CLOUDY    56  37  49 NE14      30.08F
MIDLAND        FAIR      55  32  41 NE13G18   30.08F
TROY           LGT RAIN  53  44  72 E8        30.09S
SAGINAW HB     CLOUDY    55  39  54 N10       30.06F
$$
MIZ043>046-050>051-056>058-064>065-071>073-077>080-302200-
SOUTHWEST LOWER MICHIGAN

CITY           SKY/WX    TMP DP  RH WIND       PRES   REMARKS
BATTLE CREEK   LGT RAIN  48  44  86 E7        30.01F
BENTON HARBOR  LGT RAIN  49  44  83 E13G22    29.95F
BIG RAPIDS     CLOUDY    55  30  37 E9G17     30.05F
COLDWATER      LGT RAIN  48  45  88 E13       29.99F
FREMONT        LGT RAIN  55  31  40 E7        30.04S
HOLLAND        LGT RAIN  50  43  77 E14       30.02F
GRAND RAPIDS   LGT RAIN  52  42  69 E8        30.03F
IONIA          LGT RAIN  52  38  58 E10       30.03F
KALAMAZOO      LGT RAIN  49  43  80 E7        30.01F
LUDINGTON      CLOUDY    57  35  44 SE8       30.05F
MARSHALL       LGT RAIN  49  45  88 E7        30.01F
MOUNT PLEASANT CLOUDY    56  33  41 E12       30.06F
MUSKEGON       LGT RAIN  53  39  59 NE9       30.03F
SOUTH HAVEN    DRIZZLE   47  43  85 E12G17    29.97F
$$
MIZ016>042-302200-
NORTHERN LOWER MICHIGAN

CITY           SKY/WX    TMP DP  RH WIND       PRES   REMARKS
ALPENA         CLOUDY    54  25  32 E12       30.15S
BEAVER ISLAND  CLOUDY    54  25  32 E9G16     30.14S
BELLAIRE       CLOUDY    63  27  25 E7        30.06F
CADILLAC       CLOUDY    56  33  40 E12       30.06S
CHARLEVOIX     PTSUNNY   56  29  35 NE14      30.12F
FRANKFORT      CLOUDY    54  34  46 N10       30.07F
GAYLORD        PTSUNNY   58  27  30 E9        30.08F
GRAYLING       CLOUDY    59  32  36 E8        30.08S
HARBOR SPRINGS PTSUNNY   57  26  29 E15G23    30.12S
HOUGHTON LAKE  CLOUDY    56  30  37 SE10      30.08F
MANISTEE       CLOUDY    57  32  38 E13       30.06S
OSCODA         CLOUDY    51  26  38 NE8       30.13F
PELLSTON       MOSUNNY   58  24  27 NE15G22   30.14S
ROGERS CITY    CLOUDY    43  33  68 NE6       30.17S
TRAVERSE CITY  CLOUDY    54  30  40 VRB7      30.07F
$$
MIZ007>008-015-302200-
EASTERN UPPER MICHIGAN

CITY           SKY/WX    TMP DP  RH WIND       PRES   REMARKS
KINROSS          N/A     57  25  28 SE7       30.14F
MACKINAC ISLAN CLOUDY    52  22  32 E7        30.16R
NEWBERRY       CLOUDY    54  33  44 N12       30.15S
S. S. MARIE    MOSUNNY   61  28  28 SE12      30.13F
MUNISING         N/A     42  36  79 NE13      30.21S
$$
MIZ004>006-011>014-085-302200-
CENTRAL UPPER MICHIGAN

CITY           SKY/WX    TMP DP  RH WIND       PRES   REMARKS
MANISTIQUE     CLOUDY    54  28  35 SE6       30.14S
ESCANABA       PTSUNNY   55  32  41 NE10      30.14S
MENOMINEE      CLOUDY    52  30  43 NE13      30.10F
SAWYER-GWINN   SUNNY     46  34  61 NE16G25   30.19F
$$
MIZ001>003-009>011-084-302200-
WESTERN UPPER MICHIGAN

CITY           SKY/WX    TMP DP  RH WIND       PRES   REMARKS
IRON MOUNTAIN  PTSUNNY   56  30  37 NE14      30.13S
HOUGHTON       PTSUNNY   49  33  54 E14       30.22F
COPPER HARBOR    N/A     43  37  79 N8        30.25S
IRONWOOD         N/A     50  34  53 NE9       30.16S
$$

ABBREVIATIONS USED IN REMARKS
   TC - TEMPERATURE IN CELSIUS
  WCI - WIND CHILL INDEX
   HX - HEAT INDEX
  VSB - VISIBILITY




USA.gov is the U.S. government's official web portal to all federal, state and local government web resources and services.